Weather History for PAVD - September, 2013

Change the Weather History Date:

Sunday, September 1, 2013

  Actual Average Record
Temperature  
Mean Temperature 52 °F -  
Max Temperature 57 °F 57 °F 70 °F (1968)
Min Temperature 46 °F 42 °F 34 °F (1964)
Degree Days  
Heating Degree Days 14    
Growing Degree Days 2 (Base 50)    
Moisture  
Dew Point 48 °F    
Average Humidity 87    
Maximum Humidity 94    
Minimum Humidity 77    
Precipitation  
Precipitation 0.01 in - - ()
Sea Level Pressure  
Sea Level Pressure 29.85 in    
Wind  
Wind Speed 1 mph (WSW)    
Max Wind Speed 7 mph    
Max Gust Speed -    
Visibility 8 miles    
Events      
Averages and records for this station are not official NWS values.
T = Trace of Precipitation, MM = Missing Value Source: NWS Daily Summary

Daily Weather History Graph

Daily Weather History Graph

Search for Another Location

Airport or City:

Trip Planner

Search our weather history database for the weather conditions in past years. The results will help you decide how hot, cold, wet, or windy it might be!

Date:

Astronomy

Sep. 01, 2013 Rise Set
Actual Time 6:38 AM AKDT 8:49 PM AKDT
Civil Twilight 5:51 AM AKDT 9:36 PM AKDT
Nautical Twilight 4:49 AM AKDT 10:37 PM AKDT
Astronomical Twilight 3:25 AM AKDT 11:58 PM AKDT
Moon 2:27 AM AKDT (9/1) 7:04 PM AKDT (9/1)
Length of Visible Light 15h 45m
Length of Day
14h 11m
Waning Crescent, 13% of the Moon is Illuminated
Sep 1
Waning Crescent
Sep 5
New
Sep 12
First Quarter
Sep 19
Full
Sep 26
Last Quarter

Hourly Weather History & Observations

Time (AKDT) Temp. Windchill Dew Point Humidity Pressure Visibility Wind Dir Wind Speed Gust Speed Precip Events Conditions
12:16 AM 48.2 °F - 46.4 °F 93% 29.86 in 3.0 mi Calm Calm - 0.01 in   Overcast
12:36 AM 48.2 °F - 46.4 °F 93% 29.85 in 5.0 mi ENE 3.5 mph - 0.01 in   Overcast
12:56 AM 48.2 °F - 44.6 °F 87% 29.85 in 6.0 mi Calm Calm - 0.01 in   Overcast
1:16 AM 48.2 °F - 46.4 °F 93% 29.85 in 7.0 mi East 3.5 mph - N/A   Overcast
1:36 AM 46.4 °F - 44.6 °F 93% 29.86 in 9.0 mi Calm Calm - N/A   Overcast
1:56 AM 48.2 °F - 46.4 °F 93% 29.85 in 10.0 mi Calm Calm - N/A   Overcast
2:16 AM 46.4 °F - 44.6 °F 93% 29.85 in 10.0 mi Calm Calm - N/A   Overcast
2:36 AM 48.2 °F - 44.6 °F 87% 29.85 in 5.0 mi East 4.6 mph - N/A   Overcast
2:56 AM 46.4 °F 44.3 °F 44.6 °F 93% 29.84 in 10.0 mi East 4.6 mph - N/A   Overcast
3:16 AM 48.2 °F - 46.4 °F 93% 29.84 in 4.0 mi Calm Calm - N/A   Overcast
3:36 AM 48.2 °F - 46.4 °F 93% 29.85 in 1.8 mi Calm Calm - N/A   Overcast
3:56 AM 48.2 °F - 46.4 °F 93% 29.84 in 2.5 mi Calm Calm - N/A   Overcast
4:16 AM 46.4 °F 45.2 °F 44.6 °F 93% 29.84 in 10.0 mi East 3.5 mph - N/A   Overcast
4:36 AM 46.4 °F 45.2 °F 44.6 °F 93% 29.84 in 4.0 mi East 3.5 mph - N/A   Overcast
4:56 AM 46.4 °F - 44.6 °F 93% 29.84 in 10.0 mi Calm Calm - N/A   Overcast
5:16 AM 48.2 °F - 46.4 °F 93% 29.84 in 1.2 mi Calm Calm - N/A   Overcast
5:36 AM 48.2 °F - 46.4 °F 93% 29.84 in 8.0 mi Calm Calm - N/A   Overcast
5:56 AM 48.2 °F - 46.4 °F 93% 29.84 in 5.0 mi Calm Calm - N/A   Overcast
6:16 AM 46.4 °F 44.3 °F 44.6 °F 93% 29.85 in 4.0 mi East 4.6 mph - N/A   Overcast
6:36 AM 48.2 °F - 44.6 °F 87% 29.84 in 4.0 mi Calm Calm - N/A   Overcast
6:56 AM 48.2 °F - 46.4 °F 93% 29.84 in 5.0 mi Calm Calm - N/A   Overcast
7:16 AM 48.2 °F - 46.4 °F 93% 29.84 in 5.0 mi Calm Calm - N/A   Overcast
7:36 AM 48.2 °F - 46.4 °F 93% 29.84 in 5.0 mi Calm Calm - N/A   Overcast
7:56 AM 48.2 °F - 46.4 °F 93% 29.84 in 3.0 mi Calm Calm - N/A   Overcast
8:16 AM 48.2 °F - 46.4 °F 93% 29.84 in 3.0 mi Calm Calm - N/A   Overcast
8:36 AM 48.2 °F - 46.4 °F 93% 29.84 in 3.0 mi Calm Calm - N/A   Overcast
8:56 AM 48.2 °F - 46.4 °F 93% 29.84 in 4.0 mi Calm Calm - N/A   Overcast
9:16 AM 50.0 °F - 48.2 °F 94% 29.84 in 4.0 mi Calm Calm - N/A   Overcast
9:36 AM 50.0 °F - 46.4 °F 87% 29.83 in 4.0 mi Calm Calm - N/A   Overcast
9:56 AM 51.8 °F - 48.2 °F 88% 29.83 in 2.5 mi Calm Calm - N/A   Overcast
10:16 AM 51.8 °F - 48.2 °F 88% 29.83 in 2.5 mi Calm Calm - N/A   Overcast
10:36 AM 51.8 °F - 48.2 °F 88% 29.83 in 2.5 mi Calm Calm - N/A   Overcast
10:56 AM 53.6 °F - 48.2 °F 82% 29.83 in 5.0 mi Calm Calm - N/A   Mostly Cloudy
11:16 AM 53.6 °F - 48.2 °F 82% 29.83 in 5.0 mi SW 3.5 mph - N/A   Mostly Cloudy
11:36 AM 53.6 °F - 50.0 °F 88% 29.83 in 5.0 mi SW 3.5 mph - N/A   Mostly Cloudy
11:56 AM 53.6 °F - 50.0 °F 88% 29.83 in 10.0 mi Calm Calm - N/A   Mostly Cloudy
12:16 PM 55.4 °F - 50.0 °F 82% 29.83 in 10.0 mi WSW 3.5 mph - N/A   Mostly Cloudy
12:36 PM 55.4 °F - 50.0 °F 82% 29.84 in 10.0 mi Calm Calm - N/A   Mostly Cloudy
12:56 PM 55.4 °F - 50.0 °F 82% 29.84 in 10.0 mi WSW 3.5 mph - N/A   Mostly Cloudy
1:16 PM 55.4 °F - 50.0 °F 82% 29.85 in 10.0 mi WSW 5.8 mph - N/A   Mostly Cloudy
1:36 PM 53.6 °F - 48.2 °F 82% 29.85 in 10.0 mi Calm Calm - N/A   Mostly Cloudy
1:56 PM 55.4 °F - 50.0 °F 82% 29.85 in 10.0 mi Calm Calm - N/A   Mostly Cloudy
2:16 PM 55.4 °F - 50.0 °F 82% 29.85 in 10.0 mi SW 4.6 mph - N/A   Mostly Cloudy
2:36 PM 55.4 °F - 48.2 °F 77% 29.84 in 10.0 mi Calm Calm - N/A   Mostly Cloudy
2:56 PM 55.4 °F - 50.0 °F 82% 29.84 in 10.0 mi West 3.5 mph - N/A   Overcast
3:16 PM 55.4 °F - 50.0 °F 82% 29.84 in 10.0 mi WSW 3.5 mph - N/A   Overcast
3:36 PM 55.4 °F - 48.2 °F 77% 29.84 in 10.0 mi Calm Calm - N/A   Overcast
3:56 PM 55.4 °F - 50.0 °F 82% 29.84 in 10.0 mi Calm Calm - N/A   Overcast
4:16 PM 55.4 °F - 50.0 °F 82% 29.84 in 10.0 mi WSW 3.5 mph - N/A   Overcast
4:36 PM 55.4 °F - 50.0 °F 82% 29.85 in 10.0 mi West 3.5 mph - N/A   Overcast
4:56 PM 55.4 °F - 50.0 °F 82% 29.85 in 10.0 mi West 3.5 mph - N/A   Overcast
5:16 PM 57.2 °F - 50.0 °F 77% 29.85 in 10.0 mi West 3.5 mph - N/A   Overcast
5:36 PM 55.4 °F - 50.0 °F 82% 29.85 in 10.0 mi West 6.9 mph - N/A   Overcast
5:56 PM 55.4 °F - 48.2 °F 77% 29.85 in 10.0 mi West 6.9 mph - N/A   Overcast
6:16 PM 53.6 °F - 48.2 °F 82% 29.85 in 10.0 mi West 5.8 mph - N/A   Overcast
6:36 PM 53.6 °F - 48.2 °F 82% 29.84 in 10.0 mi West 5.8 mph - N/A   Overcast
6:56 PM 53.6 °F - 48.2 °F 82% 29.85 in 10.0 mi NW 3.5 mph - N/A   Overcast
7:16 PM 53.6 °F - 48.2 °F 82% 29.85 in 10.0 mi West 3.5 mph - N/A   Overcast
7:36 PM 53.6 °F - 48.2 °F 82% 29.85 in 10.0 mi Calm Calm - N/A   Overcast
7:56 PM 53.6 °F - 48.2 °F 82% 29.85 in 10.0 mi East 3.5 mph - N/A   Overcast
8:16 PM 53.6 °F - 48.2 °F 82% 29.85 in 10.0 mi Calm Calm - N/A   Overcast
8:36 PM 53.6 °F - 48.2 °F 82% 29.86 in 10.0 mi Calm Calm - N/A   Overcast
8:56 PM 53.6 °F - 48.2 °F 82% 29.86 in 10.0 mi Calm Calm - N/A   Overcast
9:16 PM 53.6 °F - 48.2 °F 82% 29.86 in 10.0 mi Calm Calm - N/A   Overcast
9:36 PM 51.8 °F - 48.2 °F 88% 29.86 in 10.0 mi Calm Calm - N/A   Overcast
9:56 PM 51.8 °F - 50.0 °F 94% 29.87 in 4.0 mi Calm Calm - N/A   Overcast
10:16 PM 51.8 °F - 48.2 °F 88% 29.87 in 9.0 mi Calm Calm - N/A   Overcast
10:36 PM 51.8 °F - 48.2 °F 88% 29.88 in 10.0 mi Calm Calm - N/A   Overcast
10:56 PM 51.8 °F - 48.2 °F 88% 29.88 in 10.0 mi Calm Calm - N/A   Overcast
11:16 PM 51.8 °F - 48.2 °F 88% 29.89 in 10.0 mi Calm Calm - N/A   Overcast
11:36 PM 51.8 °F - 48.2 °F 88% 29.89 in 6.0 mi Calm Calm - N/A   Overcast
11:56 PM 51.8 °F - 50.0 °F 94% 29.89 in 10.0 mi Calm Calm - N/A   Overcast